Regional Weather Roundup
Issued by NWS

Home | Current Version | Previous Version | Graphics & Text | Print | Product List | Glossary On
Versions: 1 2 3 4 5 6 7 8 9 10 11 12 13 14 15 16 17 18 19 20 21 22 23 24 25 26 27 28 29 30 31 32 33 34 35 36 37 38 39 40 41 42 43 44 45 46 47 48 49 50
464
ASUS45 KTFX 130810
RWRMT
MONTANA REGIONAL WEATHER ROUNDUP
NATIONAL WEATHER SERVICE GREAT FALLS MT
100 AM MST SAT FEB 13 2016

NOTE: "FAIR" INDICATES FEW OR NO CLOUDS BELOW 12000 FEET WITH NO
SIGNIFICANT WEATHER AND/OR OBSTRUCTIONS TO VISIBILITY.

MTZ001>007-043-130900-
WEST OF THE DIVIDE

CITY           SKY/WX    TMP DP  RH WIND       PRES   REMARKS
KALISPELL      LGT RAIN  35  34  96 E6        30.00F VSB 1   WCI  30
MISSOULA       FOG       32  31  96 W5        30.03S VSB 1/4
BUTTE          CLOUDY    29  25  85 E5        30.04F
MULLAN PASS    FOG       30  29  96 VRB3      30.03S VSB 1
ANACONDA         N/A     45  28  53 S10       30.01F
DEER LODGE       N/A     30  30 100 NW5       30.03F VSB 1/2
HAMILTON         N/A     36  36 100 SW3       30.00F
PLAINS           N/A     41  38  89 CALM      30.07R
$$

MTZ008-052>055-130900-
SOUTHWEST MONTANA

CITY           SKY/WX    TMP DP  RH WIND       PRES   REMARKS
BOZEMAN        CLOUDY    33  30  88 S7        30.04F WCI  27
DILLON         CLOUDY    35  23  61 S10       30.07F WCI  27
ENNIS          CLOUDY    41  21  45 S14G23    30.12F
TWIN BRIDGES     N/A     31  22  69 CALM      30.04F
$$

MTZ009-010-012-014-046-048-049-054-130900-
EAST SLOPES AND CENTRAL MONTANA

CITY           SKY/WX    TMP DP  RH WIND       PRES   REMARKS
CUT BANK       CLEAR     30  27  88 E5        29.87F
GREAT FALLS    CLEAR     41  32  70 SW14      29.92F
MALMSTROM AFB  CLOUDY    41  33  74 S15       29.92F
HELENA         CLOUDY    33  30  88 CALM      30.00F
CHOTEAU          N/A     48  32  53 SW20G26   29.86F
CONRAD           N/A     23  23 100 CALM      29.92F
$$

MTZ011-013-016-021-045-047-050-051-130900-
NORTH CENTRAL MONTANA

CITY           SKY/WX    TMP DP  RH WIND       PRES   REMARKS
HAVRE          CLOUDY    22  21  96 CALM      29.96F
LEWISTOWN      CLOUDY    42  32  67 SW13      29.95F
N BAR RANCH      N/A     37  30  75 CALM      29.98F
CHINOOK          N/A     25  25 100 E9        29.97F WCI  15
$$

MTZ017>020-022>027-061-062-130900-
NORTHEAST MONTANA

CITY           SKY/WX    TMP DP  RH WIND       PRES   REMARKS
GLASGOW        CLOUDY    17  13  84 E20       30.04F WCI   1
JORDAN           N/A     29  27  92 SE9       30.01F WCI  20
SIDNEY         CLOUDY    18  12  79 SE10      30.21F WCI   6
WOLF POINT     CLOUDY    20  15  81 E14       30.12F WCI   7
PLENTYWOOD       N/A     10   7  85 SE15      30.18F WCI  -6
POPLAR           N/A     18  12  79 E12       30.15F WCI   5
SCOBEY           N/A     13   2  61 E15       30.09F WCI  -3
$$

MTZ028>42-056>058-130900-
SOUTHCENTRAL AND SOUTHEAST MONTANA

CITY           SKY/WX    TMP DP  RH WIND       PRES   REMARKS
BAKER          CLOUDY    20  15  81 SE23G32   30.12F WCI   3
BILLINGS       CLOUDY    32  29  88 CALM      29.99F
LIVINGSTON     CLOUDY    49  18  29 SW26G41   29.99S
MILES CITY     CLOUDY    29  24  82 SE13      30.05F WCI  19
EKALAKA          N/A     22  18  85 SE23      30.01  WCI   6
FORSYTH          N/A     28  27  93 E6        30.02F WCI  22
LAUREL           N/A     32  25  76 CALM      29.97F
ROUNDUP          N/A     37  29  73 SW15      29.89F WCI  28
$$

REGIONAL REPORTS...DAKOTAS

CITY           SKY/WX    TMP DP  RH WIND       PRES   REMARKS
WILLISTON      FLURRIES  13   7  77 SE10      30.25F WCI   0
MINOT          CLOUDY     7  -4  60 SE12      30.40F WCI  -8
DICKINSON      LGT SNOW  10   6  84 SE22      30.20F FOG     WCI -10
BEACH          CLOUDY    16  14  93 SE18G25   30.16F WCI  -1
CROSBY         FLURRIES  10   5  79 SE13      30.28F WCI  -5
TIOGA          MOCLDY     9   5  85 SE20G26   30.30F WCI -11
WATFORD CITY   LGT SNOW  10   7  85 SE14      30.25F WCI  -5
BISMARCK       CLOUDY     8  -3  61 SE13      30.45F WCI  -8
GRAND FORKS    CLOUDY    -8 -14  74 CALM      30.65F
FARGO          CLOUDY    -8 -14  74 CALM      30.65F
BUFFALO SD       N/A     19  16  88 SE17      30.10F WCI   4
RAPID CITY     CLOUDY    26  23  88 SE15      30.15F WCI  14
$$

REGIONAL REPORTS...WYOMING/IDAHO/WASHINGTON

CITY           SKY/WX    TMP DP  RH WIND       PRES   REMARKS
GILLETTE       CLOUDY    30  28  92 VRB7G17   30.05F WCI  23
SHERIDAN       CLOUDY    30  26  85 S3        30.01F
BUFFALO WY     CLOUDY    39  26  59 W7        30.04F
CODY           CLOUDY    54  23  30 W16G23    30.04S
YELLOWSTONE LA   N/A     28  21  75 CALM      30.20F
IDAHO FALLS    CLOUDY    21  19  92 CALM      30.22S
SALMON         CLOUDY    28  27  93 CALM      30.13F
BOISE          CLOUDY    36  33  89 NW6       30.18S WCI  31
SPOKANE        CLOUDY    42  40  92 SW23      30.08F
$$

REGIONAL REPORTS...ALBERTA

CITY           SKY/WX    TMP DP  RH WIND       PRES   REMARKS
EDMONTON       CLOUDY    18  14  86 SE7       29.83F WCI   8
CALGARY        PTCLDY    25  25 100 SW9       29.74F WCI  15
LETHBRIDGE     MOCLDY    41  34  75 W14       29.82F
MEDICINE HAT   CLEAR     37  30  75 SW17G25   29.80F WCI  28
WATERTON GATE    N/A     39  36  87 SW17G24     N/A  WCI  30
MILK RIVER       N/A     28  28 100 S13         N/A  WCI  18
ONEFOUR          N/A     25  23  93 E8          N/A  WCI  16
$$

REGIONAL REPORTS...SASKATCHEWAN

CITY           SKY/WX    TMP DP  RH WIND       PRES   REMARKS
SWIFT CURRENT  CLOUDY    18  16  93 S23G31    29.92F WCI   0
REGINA         FLURRIES   9   1  72 SE23G31   30.19F WCI -12
SASKATOON      CLOUDY    10   3  72 SE12G17   30.10F WCI  -4
CYPRESS HILLS    N/A     18  14  86 S2          N/A
VAL MARIE        N/A     19  18  93 SE12        N/A  WCI   7
ROCKGLEN         N/A     10   9  92 SE17G24     N/A  WCI  -7
ASSINIBOIA       N/A     14  12  92 SE7         N/A  WCI   4
$$




USA.gov is the U.S. government's official web portal to all federal, state and local government web resources and services.